Weather History for Canadian, TX

Change the Weather History Date:

Friday, December 7, 2012

  Actual Average (KPPA) Record (KPPA)
Temperature  
Mean Temperature 44 °F -  
Max Temperature 57 °F 49 °F 73 °F (2003)
Min Temperature 32 °F 25 °F 0 °F (1972)
Degree Days  
Heating Degree Days 20    
Moisture  
Dew Point 27 °F    
Average Humidity 56    
Maximum Humidity 81    
Minimum Humidity 33    
Precipitation  
Precipitation 0.00 in - - ()
Sea Level Pressure  
Sea Level Pressure 29.88 in    
Wind  
Wind Speed 2 mph (North)    
Max Wind Speed 6 mph    
Max Gust Speed -    
Visibility 10 miles    
Events      
Averages and records for this station are not official NWS values.
T = Trace of Precipitation, MM = Missing Value Source: NWS Daily Summary

Daily Weather History Graph

Daily Weather History Graph

Search for Another Location

Airport:

Trip Planner

Search our weather history database for the weather conditions in past years. The results will help you decide how hot, cold, wet, or windy it might be!

Date:

Astronomy

Dec. 07, 2012 Rise Set
Actual Time 7:39 AM CST 5:27 PM CST
Civil Twilight 7:10 AM CST 5:55 PM CST
Nautical Twilight 6:38 AM CST 6:27 PM CST
Astronomical Twilight 6:07 AM CST 6:58 PM CST
Moon 1:10 AM CST (12/7) 1:16 PM CST (12/7)
Length of Visible Light 10h 45m
Length of Day
9h 48m
Last Quarter, 38% of the Moon is Illuminated
Dec 7
Last Quarter
Dec 13
New
Dec 19
First Quarter
Dec 28
Full
Jan 4
Last Quarter

Hourly Weather History & Observations

Time (CST) Temp. Windchill Dew Point Humidity Pressure Visibility Wind Dir Wind Speed Gust Speed Precip Events Conditions
12:15 AM 41.0 °F 38.0 °F 28.4 °F 61% 29.93 in 10.0 mi North 4.6 mph - N/A   Clear
12:35 AM 39.2 °F - 28.4 °F 65% 29.94 in 10.0 mi Calm Calm - N/A   Clear
12:55 AM 37.4 °F - 28.4 °F 70% 29.93 in 10.0 mi Calm Calm - N/A   Clear
1:15 AM 37.4 °F - 28.4 °F 70% 29.93 in 10.0 mi Calm Calm - N/A   Clear
1:35 AM 37.4 °F - 28.4 °F 70% 29.91 in 10.0 mi Calm Calm - N/A   Clear
1:55 AM 35.6 °F - 26.6 °F 70% 29.92 in 10.0 mi Calm Calm - N/A   Clear
2:15 AM 35.6 °F - 26.6 °F 70% 29.91 in 10.0 mi Calm Calm - N/A   Clear
2:35 AM 35.6 °F - 26.6 °F 70% 29.92 in 10.0 mi Calm Calm - N/A   Clear
2:55 AM 35.6 °F - 26.6 °F 70% 29.91 in 10.0 mi Calm Calm - N/A   Clear
3:15 AM 35.6 °F - 26.6 °F 70% 29.91 in 10.0 mi Calm Calm - N/A   Clear
3:35 AM 35.6 °F - 26.6 °F 70% 29.91 in 10.0 mi Calm Calm - N/A   Clear
3:55 AM 35.6 °F - 26.6 °F 70% 29.91 in 10.0 mi Calm Calm - N/A   Clear
4:15 AM 37.4 °F - 26.6 °F 65% 29.90 in 10.0 mi Calm Calm - N/A   Clear
4:35 AM 37.4 °F 34.9 °F 26.6 °F 65% 29.90 in 10.0 mi North 3.5 mph - N/A   Clear
4:55 AM 37.4 °F - 26.6 °F 65% 29.89 in 10.0 mi Calm Calm - N/A   Clear
5:15 AM 37.4 °F - 26.6 °F 65% 29.89 in 10.0 mi Calm Calm - N/A   Clear
5:35 AM 37.4 °F - 26.6 °F 65% 29.90 in 10.0 mi Calm Calm - N/A   Clear
6:15 AM 37.4 °F - 26.6 °F 65% 29.89 in 10.0 mi Calm Calm - N/A   Clear
6:35 AM 37.4 °F - 26.6 °F 65% 29.89 in 10.0 mi Calm Calm - N/A   Clear
6:55 AM 37.4 °F - 26.6 °F 65% 29.90 in 10.0 mi Calm Calm - N/A   Clear
7:15 AM 37.4 °F - 26.6 °F 65% 29.91 in 10.0 mi Calm Calm - N/A   Clear
7:35 AM 35.6 °F 32.8 °F 24.8 °F 65% 29.91 in 10.0 mi NW 3.5 mph - N/A   Clear
7:55 AM 35.6 °F 32.8 °F 24.8 °F 65% 29.91 in 10.0 mi NNW 3.5 mph - N/A   Clear
8:15 AM 35.6 °F 32.8 °F 24.8 °F 65% 29.90 in 10.0 mi NNW 3.5 mph - N/A   Clear
8:35 AM 35.6 °F 32.8 °F 24.8 °F 65% 29.91 in 10.0 mi NNW 3.5 mph - N/A   Clear
8:55 AM 37.4 °F 34.9 °F 24.8 °F 60% 29.91 in 10.0 mi NNW 3.5 mph - N/A   Clear
9:15 AM 39.2 °F 37.0 °F 24.8 °F 56% 29.91 in 10.0 mi North 3.5 mph - N/A   Clear
9:35 AM 39.2 °F 35.0 °F 24.8 °F 56% 29.91 in 10.0 mi NNW 5.8 mph - N/A   Clear
9:55 AM 41.0 °F 39.0 °F 24.8 °F 53% 29.91 in 10.0 mi NNW 3.5 mph - N/A   Clear
10:15 AM 42.8 °F - 26.6 °F 53% 29.91 in 10.0 mi Calm Calm - N/A   Clear
10:35 AM 44.6 °F - 26.6 °F 49% 29.90 in 10.0 mi Calm Calm - N/A   Clear
10:55 AM 46.4 °F 43.5 °F 28.4 °F 50% 29.90 in 10.0 mi NW 5.8 mph - N/A   Clear
11:15 AM 46.4 °F 45.2 °F 28.4 °F 50% 29.90 in 10.0 mi West 3.5 mph - N/A   Clear
11:35 AM 48.2 °F - 28.4 °F 46% 29.88 in 10.0 mi NNW 3.5 mph - N/A   Clear
11:55 AM 50.0 °F - 28.4 °F 43% 29.87 in 10.0 mi North 3.5 mph - N/A   Clear
12:15 PM 50.0 °F - 28.4 °F 43% 29.86 in 10.0 mi WNW 4.6 mph - N/A   Clear
12:35 PM 51.8 °F - 28.4 °F 41% 29.85 in 10.0 mi North 3.5 mph - N/A   Clear
12:55 PM 51.8 °F - 26.6 °F 38% 29.84 in 10.0 mi WSW 3.5 mph - N/A   Clear
1:15 PM 51.8 °F - 26.6 °F 38% 29.83 in 10.0 mi North 3.5 mph - N/A   Clear
1:35 PM 53.6 °F - 28.4 °F 38% 29.81 in 10.0 mi Calm Calm - N/A   Clear
1:55 PM 53.6 °F - 26.6 °F 35% 29.81 in 10.0 mi Calm Calm - N/A   Clear
2:15 PM 55.4 °F - 26.6 °F 33% 29.80 in 10.0 mi Calm Calm - N/A   Clear
2:35 PM 55.4 °F - 28.4 °F 36% 29.79 in 10.0 mi Calm Calm - N/A   Clear
2:55 PM 55.4 °F - 28.4 °F 36% 29.79 in 10.0 mi NE 3.5 mph - N/A   Clear
3:15 PM 57.2 °F - 28.4 °F 33% 29.79 in 10.0 mi Calm Calm - N/A   Clear
3:35 PM 57.2 °F - 28.4 °F 33% 29.79 in 10.0 mi Calm Calm - N/A   Clear
3:55 PM 57.2 °F - 28.4 °F 33% 29.79 in 10.0 mi Calm Calm - N/A   Clear
4:15 PM 57.2 °F - 28.4 °F 33% 29.80 in 10.0 mi Calm Calm - N/A   Clear
4:35 PM 57.2 °F - 28.4 °F 33% 29.80 in 10.0 mi NNE 4.6 mph - N/A   Clear
4:55 PM 55.4 °F - 28.4 °F 36% 29.80 in 10.0 mi North 3.5 mph - N/A   Clear
5:15 PM 53.6 °F - 26.6 °F 35% 29.81 in 10.0 mi NNE 3.5 mph - N/A   Clear
5:35 PM 53.6 °F - 28.4 °F 38% 29.82 in 10.0 mi Calm Calm - N/A   Clear
5:55 PM 53.6 °F - 28.4 °F 38% 29.83 in 10.0 mi Calm Calm - N/A   Clear
6:15 PM 50.0 °F - 26.6 °F 40% 29.84 in 10.0 mi East 3.5 mph - N/A   Clear
6:35 PM 50.0 °F - 26.6 °F 40% 29.84 in 10.0 mi ESE 4.6 mph - N/A   Clear
7:15 PM 46.4 °F - 26.6 °F 46% 29.87 in 10.0 mi Calm Calm - N/A   Clear
7:35 PM 46.4 °F 44.3 °F 28.4 °F 50% 29.88 in 10.0 mi NNE 4.6 mph - N/A   Clear
7:55 PM 42.8 °F - 28.4 °F 57% 29.89 in 10.0 mi Calm Calm - N/A   Clear
8:35 PM 42.8 °F 40.1 °F 28.4 °F 57% 29.90 in 10.0 mi East 4.6 mph - N/A   Clear
8:55 PM 44.6 °F 43.1 °F 30.2 °F 57% 29.91 in 10.0 mi ESE 3.5 mph - N/A   Clear
9:15 PM 41.0 °F - 28.4 °F 61% 29.91 in 10.0 mi Calm Calm - N/A   Clear
9:35 PM 39.2 °F - 28.4 °F 65% 29.91 in 10.0 mi Calm Calm - N/A   Clear
9:55 PM 33.8 °F - 26.6 °F 75% 29.91 in 10.0 mi Calm Calm - N/A   Clear
10:15 PM 32.0 °F - 24.8 °F 75% 29.91 in 10.0 mi Calm Calm - N/A   Clear
10:35 PM 32.0 °F - 24.8 °F 75% 29.92 in 10.0 mi Calm Calm - N/A   Clear
10:55 PM 32.0 °F - 24.8 °F 75% 29.92 in 10.0 mi Calm Calm - N/A   Clear
11:15 PM 32.0 °F - 26.6 °F 80% 29.94 in 10.0 mi Calm Calm - N/A   Clear
11:35 PM 32.0 °F 27.5 °F 26.6 °F 80% 29.95 in 10.0 mi NNE 4.6 mph - N/A   Clear
11:55 PM 33.8 °F - 28.4 °F 81% 29.95 in 10.0 mi Calm Calm - N/A   Clear